Flag for Germany Weather past 2 weeks in Bad Nauheim, Hesse, Germany

Now
36 °F

Passing clouds.


Feels Like: 32 °F
Forecast: 34 / 43 °F
Wind: 5 mph from West

Location: Giessen

Current Time: Mar 4, 2015 at 11:53:50 PM

Latest Report: Mar 4, 2015 at 11:00 PM


Visibility: 25 mi

Pressure: 30.40 "Hg

Humidity: 88%

Dew point: 33 °F

Location of Bad NauheimLocation

Historic Weather in Bad Nauheim — Graph

°F

Bad Nauheim temperature yesterday

Maximum temperature yesterday: 49 °F (at 3:00 PM)
Minimum temperature yesterday: 32 °F (at 7:00 AM)
Average temperature yesterday: 39 °F

Past Weeks' High & Low Weather Summary

 TemperatureHumidityPressure
High51 °F (Mar 1, 3:00 PM)100% (Feb 22, 4:00 AM)30.77 "Hg (Feb 22, 4:00 AM)
Low28 °F (Feb 25, 3:00 AM)51% (Mar 2, 4:00 PM)29.41 "Hg (Feb 21, 7:00 AM)
Average38 °F85%29.98 "Hg
* Reported Feb 17 10:00 PM — Mar 4 10:00 PM, Bad Nauheim, Weather by CustomWeather, © 2015

Note: Actual official high and low records may vary slightly from our data, if they occured in-between our weather recording intervals... More about our weather records

Advertising

Bad Nauheim weather history for previous 24 hours

 ConditionsComfort  
Time TempWeatherWind HumidityBarometerVisibility
10:00 PM
Wed, Mar 4
37 °FDrizzle. Overcast.6 mph92%30.39 "Hg11 mi
9:00 PM35 °FOvercast.2 mph97%30.38 "Hg7 mi
8:00 PM34 °FPassing clouds.3 mph97%30.37 "Hg9 mi
7:00 PM35 °FLow clouds.5 mph95%30.36 "Hg19 mi
6:00 PM38 °FLow clouds.5 mph90%30.34 "Hg40 mi
5:00 PM42 °FOvercast.9 mph65%30.30 "Hg22 mi
4:00 PM44 °FOvercast.9 mph59%30.28 "Hg28 mi
3:00 PM44 °FOvercast.5 mph65%30.28 "Hg37 mi
2:00 PM42 °FOvercast.7 mph68%30.28 "Hg37 mi
1:00 PM42 °FOvercast.8 mph71%30.28 "Hg31 mi
12:00 PM40 °FOvercast.7 mph76%30.28 "Hg28 mi
11:00 AM40 °FOvercast.8 mph80%30.27 "Hg22 mi
10:00 AM37 °FOvercast.8 mph89%30.27 "Hg16 mi
9:00 AM36 °FPartly sunny.7 mph92%30.25 "Hg13 mi
8:00 AM34 °FPartly sunny.5 mph95%30.24 "Hg16 mi
7:00 AM33 °FPassing clouds.5 mph96%30.23 "Hg16 mi
6:00 AM33 °FClear.2 mph95%30.22 "Hg13 mi
5:00 AM34 °FPassing clouds.3 mph93%30.21 "Hg16 mi
4:00 AM36 °FOvercast.5 mph93%30.18 "Hg14 mi
3:00 AM35 °FPassing clouds.5 mph94%30.16 "Hg19 mi
2:00 AM36 °FLight freezing rain. Low clouds.7 mph89%30.15 "Hg14 mi
1:00 AM36 °FOvercast.5 mph92%30.12 "Hg22 mi
12:00 AM37 °FOvercast.5 mph90%30.11 "Hg43 mi
11:00 PM
Tue, Mar 3
38 °FLight rain. Overcast.5 mph94%30.08 "Hg22 mi
Weather by CustomWeather, © 2015

See weather overviewHow to use our weather pages